| time (UTC) | temp C | wind direction | speed KPH | gust KPH | rain 1hr cm | rain 24hr cm | rain mn cm | humidity % | barometer mb |
| 20260507105309 | 17 | 344 | 1.6 | 14.5 | 0.00 | 0.00 | 0.00 | 49 | 14.4 |
| 20260507104309 | 17 | 330 | 4.8 | 14.5 | 0.00 | 0.00 | 0.00 | 50 | 14.2 |
| 20260507103309 | 16 | 94 | 6.4 | 17.7 | 0.00 | 0.00 | 0.00 | 48 | 14.3 |
| 20260507102309 | 17 | 20 | 1.6 | 16.1 | 0.00 | 0.00 | 0.00 | 50 | 14.1 |
| 20260507101309 | 17 | 95 | 0.0 | 8.0 | 0.00 | 0.00 | 0.00 | 51 | 14.3 |
| 20260507093309 | 16 | 74 | 4.8 | 14.5 | 0.00 | 0.00 | 0.00 | 52 | 14.1 |
| 20260507092309 | 16 | 81 | 0.0 | 14.5 | 0.00 | 0.00 | 0.00 | 53 | 14.1 |
| 20260507091309 | 15 | 58 | 1.6 | 8.0 | 0.00 | 0.00 | 0.00 | 54 | 14.0 |
| 20260507085309 | 15 | 91 | 6.4 | 12.9 | 0.00 | 0.00 | 0.00 | 54 | 14.0 |
| 20260507084309 | 15 | 81 | 1.6 | 9.7 | 0.00 | 0.00 | 0.00 | 55 | 13.9 |
| 20260507083309 | 15 | 45 | 0.0 | 6.4 | 0.00 | 0.00 | 0.00 | 56 | 13.9 |
| 20260507082309 | 15 | 40 | 0.0 | 1.6 | 0.00 | 0.00 | 0.00 | 57 | 14.1 |
| 20260507081313 | 15 | 69 | 0.0 | 8.0 | 0.00 | 0.00 | 0.00 | 58 | 14.0 |
| 20260507075310 | 13 | 69 | 0.0 | 4.8 | 0.00 | 0.00 | 0.00 | 58 | 13.6 |
| 20260507073309 | 12 | 36 | 3.2 | 9.7 | 0.00 | 0.00 | 0.00 | 61 | 13.6 |
| 20260507072309 | 11 | 355 | 1.6 | 11.3 | 0.00 | 0.00 | 0.00 | 65 | 13.5 |
| 20260507071309 | 10 | 103 | 0.0 | 6.4 | 0.00 | 0.00 | 0.00 | 66 | 13.5 |
| 20260507065311 | 10 | 79 | 0.0 | 9.7 | 0.00 | 0.00 | 0.00 | 69 | 13.5 |
| 20260507064309 | 9 | 5 | 1.6 | 14.5 | 0.00 | 0.00 | 0.00 | 70 | 13.5 |
| 20260507063309 | 9 | 74 | 1.6 | 8.0 | 0.00 | 0.00 | 0.00 | 72 | 13.4 |
| 20260507061309 | 8 | 355 | 0.0 | 1.6 | 0.00 | 0.00 | 0.00 | 78 | 13.2 |
| 20260507055309 | 7 | 14 | 0.0 | 0.0 | 0.00 | 0.00 | 0.00 | 79 | 13.3 |
| 20260507053310 | 7 | 35 | 0.0 | 0.0 | 0.00 | 0.00 | 0.00 | 79 | 13.2 |
| 20260507052310 | 7 | 35 | 0.0 | 0.0 | 0.00 | 0.00 | 0.00 | 79 | 13.1 |
| 20260507051309 | 7 | 35 | 0.0 | 0.0 | 0.00 | 0.00 | 0.00 | 78 | 12.9 |
| 20260507045310 | 7 | 35 | 0.0 | 0.0 | 0.00 | 0.00 | 0.00 | 77 | 12.7 |
| 20260507044311 | 7 | 35 | 0.0 | 0.0 | 0.00 | 0.00 | 0.00 | 77 | 12.6 |
| 20260507042309 | 7 | 35 | 0.0 | 0.0 | 0.00 | 0.00 | 0.00 | 76 | 12.5 |
| 20260507041309 | 7 | 35 | 0.0 | 0.0 | 0.00 | 0.00 | 0.00 | 76 | 12.5 |
| 20260507040309 | 7 | 35 | 0.0 | 0.0 | 0.00 | 0.00 | 0.00 | 75 | 12.4 |
| 20260507035309 | 8 | 35 | 0.0 | 0.0 | 0.00 | 0.00 | 0.00 | 75 | 12.4 |
| 20260507034309 | 8 | 65 | 0.0 | 0.0 | 0.00 | 0.00 | 0.00 | 75 | 12.3 |
| 20260507033309 | 8 | 65 | 0.0 | 0.0 | 0.00 | 0.00 | 0.00 | 75 | 12.3 |
| 20260507032310 | 8 | 74 | 0.0 | 0.0 | 0.00 | 0.00 | 0.00 | 75 | 12.2 |
| 20260507025309 | 8 | 44 | 0.0 | 0.0 | 0.00 | 0.00 | 0.00 | 75 | 12.1 |
| 20260507024310 | 8 | 350 | 0.0 | 0.0 | 0.00 | 0.00 | 0.00 | 75 | 11.9 |
| 20260507023309 | 8 | 340 | 0.0 | 0.0 | 0.00 | 0.00 | 0.00 | 75 | 11.8 |
| 20260507022309 | 8 | 343 | 0.0 | 0.0 | 0.00 | 0.00 | 0.00 | 75 | 11.7 |
| 20260507021309 | 8 | 32 | 0.0 | 0.0 | 0.00 | 0.00 | 0.00 | 74 | 11.7 |
| 20260507015309 | 8 | 65 | 0.0 | 0.0 | 0.00 | 0.00 | 0.00 | 74 | 11.6 |
| 20260507012309 | 9 | 355 | 0.0 | 0.0 | 0.00 | 0.00 | 0.00 | 74 | 11.7 |
| 20260507005309 | 9 | 355 | 0.0 | 0.0 | 0.00 | 0.00 | 0.00 | 73 | 11.4 |
| 20260507004309 | 9 | 42 | 0.0 | 1.6 | 0.00 | 0.00 | 0.00 | 73 | 11.4 |
| 20260507003310 | 9 | 14 | 0.0 | 1.6 | 0.00 | 0.00 | 0.00 | 73 | 11.2 |
| 20260507002309 | 9 | 67 | 0.0 | 1.6 | 0.00 | 0.00 | 0.00 | 72 | 11.3 |
| 20260507001310 | 9 | 26 | 0.0 | 1.6 | 0.00 | 0.00 | 0.00 | 72 | 11.3 |
| 20260506235309 | 10 | 30 | 1.6 | 8.0 | 0.00 | 0.00 | 0.00 | 71 | 11.2 |
| 20260506234309 | 10 | 5 | 0.0 | 12.9 | 0.00 | 0.00 | 0.00 | 70 | 11.3 |
| 20260506233309 | 10 | 44 | 0.0 | 6.4 | 0.00 | 0.00 | 0.00 | 70 | 11.2 |
| 20260506232309 | 10 | 55 | 0.0 | 6.4 | 0.00 | 0.00 | 0.00 | 70 | 11.1 |
| 20260506225309 | 10 | 17 | 0.0 | 0.0 | 0.00 | 0.00 | 0.00 | 70 | 11.0 |
| 20260506224309 | 10 | 24 | 0.0 | 0.0 | 0.00 | 0.00 | 0.00 | 70 | 10.9 |
| 20260506222309 | 10 | 54 | 0.0 | 0.0 | 0.00 | 0.00 | 0.00 | 70 | 10.8 |
| 20260506221310 | 10 | 34 | 0.0 | 3.2 | 0.00 | 0.00 | 0.00 | 70 | 10.8 |
| 20260506220309 | 10 | 65 | 0.0 | 1.6 | 0.00 | 0.00 | 0.00 | 70 | 10.7 |
| 20260506215309 | 10 | 75 | 0.0 | 0.0 | 0.00 | 0.00 | 0.00 | 69 | 10.8 |
| 20260506213309 | 11 | 75 | 0.0 | 0.0 | 0.00 | 0.00 | 0.00 | 68 | 10.7 |
| 20260506212309 | 11 | 103 | 0.0 | 0.0 | 0.00 | 0.00 | 0.00 | 67 | 10.6 |
| 20260506211310 | 11 | 119 | 0.0 | 0.0 | 0.00 | 0.00 | 0.00 | 68 | 10.5 |
| 20260506205309 | 11 | 119 | 0.0 | 0.0 | 0.00 | 0.00 | 0.00 | 67 | 10.4 |
| 20260506204309 | 11 | 119 | 0.0 | 0.0 | 0.00 | 0.00 | 0.00 | 66 | 10.4 |
| 20260506203309 | 11 | 119 | 0.0 | 0.0 | 0.00 | 0.00 | 0.00 | 65 | 10.3 |
| 20260506202309 | 11 | 119 | 0.0 | 0.0 | 0.00 | 0.00 | 0.00 | 65 | 10.2 |
| 20260506201309 | 11 | 119 | 0.0 | 0.0 | 0.00 | 0.00 | 0.00 | 65 | 10.2 |
| 20260506194309 | 11 | 119 | 0.0 | 0.0 | 0.00 | 0.00 | 0.00 | 65 | 10.2 |
| 20260506193309 | 11 | 119 | 0.0 | 0.0 | 0.00 | 0.00 | 0.00 | 64 | 10.0 |
| 20260506192310 | 11 | 119 | 0.0 | 0.0 | 0.00 | 0.00 | 0.00 | 64 | 9.6 |
| 20260506191309 | 11 | 119 | 0.0 | 0.0 | 0.00 | 0.00 | 0.00 | 64 | 9.5 |
| 20260506190309 | 11 | 117 | 0.0 | 0.0 | 0.00 | 0.00 | 0.00 | 63 | 9.5 |
| 20260506185310 | 11 | 119 | 0.0 | 0.0 | 0.00 | 0.00 | 0.00 | 63 | 9.3 |
| 20260506184309 | 11 | 119 | 0.0 | 0.0 | 0.00 | 0.00 | 0.00 | 63 | 9.2 |
| 20260506182309 | 12 | 99 | 0.0 | 0.0 | 0.00 | 0.00 | 0.00 | 63 | 9.1 |
| 20260506175309 | 12 | 103 | 0.0 | 4.8 | 0.00 | 0.00 | 0.00 | 63 | 8.9 |
| 20260506174309 | 12 | 96 | 0.0 | 6.4 | 0.00 | 0.00 | 0.00 | 63 | 8.9 |
| 20260506173310 | 12 | 106 | 0.0 | 3.2 | 0.00 | 0.00 | 0.00 | 62 | 8.7 |
| 20260506172309 | 12 | 132 | 0.0 | 9.7 | 0.00 | 0.00 | 0.00 | 62 | 8.6 |
| 20260506165309 | 12 | 90 | 0.0 | 3.2 | 0.00 | 0.00 | 0.00 | 61 | 8.3 |
| 20260506164309 | 12 | 92 | 0.0 | 3.2 | 0.00 | 0.00 | 0.00 | 61 | 8.5 |
| 20260506163310 | 12 | 121 | 0.0 | 4.8 | 0.00 | 0.00 | 0.00 | 61 | 8.5 |
| 20260506162309 | 12 | 92 | 0.0 | 6.4 | 0.00 | 0.00 | 0.00 | 61 | 8.4 |
| 20260506161309 | 12 | 73 | 3.2 | 14.5 | 0.00 | 0.00 | 0.00 | 60 | 8.5 |
| 20260506160310 | 12 | 92 | 1.6 | 12.9 | 0.00 | 0.00 | 0.00 | 61 | 8.5 |
| 20260506155309 | 12 | 108 | 4.8 | 11.3 | 0.00 | 0.00 | 0.00 | 62 | 8.4 |
| 20260506154309 | 12 | 53 | 1.6 | 17.7 | 0.00 | 0.00 | 0.00 | 62 | 8.5 |
| 20260506153309 | 12 | 69 | 0.0 | 14.5 | 0.00 | 0.00 | 0.00 | 62 | 8.4 |
| 20260506152309 | 12 | 52 | 3.2 | 16.1 | 0.00 | 0.00 | 0.00 | 62 | 8.5 |
| 20260506151310 | 12 | 95 | 4.8 | 17.7 | 0.00 | 0.00 | 0.00 | 63 | 8.4 |
| 20260506145309 | 12 | 120 | 3.2 | 16.1 | 0.00 | 0.00 | 0.00 | 62 | 8.4 |
| 20260506143310 | 12 | 140 | 4.8 | 17.7 | 0.00 | 0.00 | 0.00 | 62 | 8.3 |
| 20260506141309 | 12 | 92 | 14.5 | 25.7 | 0.00 | 0.00 | 0.00 | 61 | 8.2 |
| 20260506134309 | 12 | 132 | 11.3 | 30.6 | 0.00 | 0.00 | 0.00 | 59 | 8.1 |
| 20260506133309 | 12 | 46 | 14.5 | 24.1 | 0.00 | 0.00 | 0.00 | 58 | 8.0 |
| 20260506132309 | 12 | 78 | 11.3 | 24.1 | 0.00 | 0.00 | 0.00 | 59 | 8.0 |
| 20260506131310 | 12 | 71 | 3.2 | 17.7 | 0.00 | 0.00 | 0.00 | 59 | 7.9 |
| 20260506124309 | 12 | 62 | 9.7 | 19.3 | 0.00 | 0.00 | 0.00 | 58 | 7.9 |
| 20260506123309 | 12 | 96 | 9.7 | 25.7 | 0.00 | 0.00 | 0.00 | 58 | 7.9 |
| 20260506121309 | 12 | 40 | 9.7 | 22.5 | 0.00 | 0.00 | 0.00 | 55 | 7.7 |
| 20260506115309 | 12 | 63 | 3.2 | 17.7 | 0.00 | 0.00 | 0.00 | 58 | 7.5 |
| 20260506114309 | 12 | 36 | 8.0 | 20.9 | 0.00 | 0.00 | 0.00 | 59 | 7.5 |
| 20260506113309 | 12 | 66 | 8.0 | 14.5 | 0.00 | 0.00 | 0.00 | 59 | 7.6 |
| 20260506112310 | 12 | 91 | 9.7 | 16.1 | 0.00 | 0.00 | 0.00 | 59 | 7.5 |
| 20260506111309 | 12 | 101 | 6.4 | 17.7 | 0.00 | 0.00 | 0.00 | 60 | 7.6 |